Home > Weather > Gliwice > Past weeks

Flag for Poland Weather for the Past 2 Weeks in Gliwice, Poland

Now
39 °F

Clear.


Feels Like: 39 °F
Forecast: 32 / 59 °F
Wind: 2 mph from West

Location: Katowice Airport

Current Time: Apr 28, 2016 at 10:37:33 PM

Latest Report: Apr 28, 2016 at 10:00 PM


Visibility: 10 mi

Pressure: 30.07 "Hg

Humidity: 87%

Dew Point: 36 °F

Location of GliwiceLocation

Historic Weather in Gliwice — Graph

°F

Gliwice Temperature Yesterday

Maximum temperature yesterday: 43 °F (at 10:00 AM)
Minimum temperature yesterday: 37 °F (at 9:30 PM)
Average temperature yesterday: 40 °F

High & Low Weather Summary for the Past Weeks

 TemperatureHumidityPressure
High68 °F (Apr 17, 1:30 PM)100% (Apr 14, 10:00 AM)30.30 "Hg (Apr 14, 10:00 AM)
Low23 °F (Apr 26, 6:00 AM)24% (Apr 23, 1:30 PM)29.59 "Hg (Apr 14, 4:30 AM)
Average46 °F72%29.87 "Hg
* Reported Apr 13 9:00 PM — Apr 28 9:30 PM, Gliwice, Weather by CustomWeather, © 2016

Note: Actual official high and low records may vary slightly from our data, if they occured in-between our weather recording intervals... More about our weather records

Advertising

Gliwice Weather History for the Previous 24 Hours

Scroll right to see more
 ConditionsComfort  
Time TempWeatherWind HumidityBarometerVisibility
9:30 PM
Thu, Apr 28
39 °FClear.8 mph87%30.07 "Hg10 mi
9:00 PM41 °FClear.15 mph87%30.07 "Hg10 mi
8:30 PM41 °FPassing clouds.7 mph87%30.04 "HgN/A
8:00 PM41 °FSprinkles. Scattered clouds.9 mph81%30.04 "HgN/A
7:30 PM41 °FSprinkles. Broken clouds.7 mph87%30.04 "HgN/A
7:00 PM41 °FSprinkles. Broken clouds.20 mph81%30.04 "HgN/A
6:30 PM41 °FSprinkles. Broken clouds.15 mph81%30.01 "HgN/A
6:00 PM45 °FPartly sunny.13 mph66%30.01 "HgN/A
5:30 PM46 °FSprinkles. Partly sunny.22 mph53%30.01 "HgN/A
5:00 PM50 °FPassing clouds.14 mph37%29.98 "HgN/A
4:30 PM52 °FSunny.14 mph38%29.98 "Hg10 mi
4:00 PM52 °FPassing clouds.15 mph35%29.98 "HgN/A
3:00 PM52 °FScattered clouds.17 mph44%29.98 "HgN/A
2:30 PM50 °FScattered clouds.16 mph43%29.98 "HgN/A
2:00 PM52 °FScattered clouds.14 mph47%30.01 "HgN/A
1:30 PM48 °FScattered clouds.14 mph50%29.98 "HgN/A
1:00 PM52 °FScattered clouds.12 mph47%29.98 "HgN/A
12:00 PM48 °FScattered clouds.15 mph54%29.98 "HgN/A
11:30 AM46 °FScattered clouds.14 mph53%29.98 "HgN/A
11:00 AM46 °FScattered clouds.16 mph53%29.98 "HgN/A
10:00 AM43 °FScattered clouds.15 mph66%29.98 "HgN/A
9:30 AM45 °FPassing clouds.12 mph61%29.95 "HgN/A
8:00 AM39 °FSunny.12 mph75%29.95 "Hg10 mi
7:00 AM36 °FSunny.7 mph87%29.92 "Hg10 mi
6:00 AM34 °FClear.8 mph87%29.92 "Hg10 mi
5:30 AM34 °FClear.8 mph87%29.92 "Hg10 mi
5:00 AM34 °FClear.8 mph87%29.92 "Hg10 mi
4:30 AM34 °FClear.9 mph93%29.92 "Hg10 mi
4:00 AM34 °FClear.9 mph93%29.89 "Hg6 mi
3:30 AM36 °FClear.13 mph87%29.89 "Hg6 mi
3:00 AM36 °FClear.12 mph93%29.89 "Hg6 mi
2:30 AM36 °FClear.9 mph93%29.89 "Hg5 mi
2:00 AM37 °FClear.7 mph87%29.86 "Hg4 mi
1:30 AM37 °FClear.8 mph93%29.86 "Hg4 mi
1:00 AM37 °FFog.9 mph93%29.86 "Hg3 mi
12:30 AM37 °FFog.9 mph93%29.86 "Hg3 mi
12:00 AM39 °FFog.9 mph87%29.86 "Hg3 mi
11:00 PM
Wed, Apr 27
37 °FClear.8 mph93%29.86 "Hg5 mi
10:30 PM37 °FPassing clouds.5 mph93%29.83 "HgN/A
10:00 PM37 °FClear.6 mph93%29.86 "Hg10 mi
Weather by CustomWeather, © 2016

See weather overviewHow to use our weather pages